Location: Caltech
(34.1382°N, 118.1253°W)
Time: 13:50:33
(UTC-07:00)

Courier 1B - Visible Passes

Search period start: 22 October 2017 00:00
Search period end: 01 November 2017 00:00
Orbit: 963 x 1209 km, 28.3° (Epoch: 21 October)

Date Brightness Start Highest point End Pass type
(mag) Time Alt. Az. Time Alt. Az. Time Alt. Az.
22 Oct 9.0 03:55:46 34° SE 03:55:46 34° SE 04:00:14 10° ESE visible
22 Oct 8.8 05:42:41 21° WSW 05:46:35 33° SSW 05:53:23 10° SE visible
23 Oct 10.2 03:05:31 13° ESE 03:05:31 13° ESE 03:06:19 10° ESE visible
23 Oct 8.5 04:52:25 38° SSW 04:52:46 38° SSW 04:59:52 10° SE visible
24 Oct 9.2 04:02:12 30° SE 04:02:12 30° SE 04:06:13 10° SE visible
24 Oct 9.3 05:49:06 16° WSW 05:52:39 22° SSW 05:58:23 10° SSE visible
25 Oct 10.2 03:12:00 12° ESE 03:12:00 12° ESE 03:12:27 10° ESE visible
25 Oct 8.9 04:58:54 27° SSW 04:58:54 27° SSW 05:05:14 10° SSE visible
26 Oct 9.4 04:08:43 22° SSE 04:08:43 22° SSE 04:11:51 10° SE visible
26 Oct 9.6 05:55:38 10° SW 05:58:42 13° SSW 06:02:00 10° S visible
27 Oct 9.4 05:05:29 17° SSW 05:05:29 17° SSW 05:09:46 10° S visible
27 Oct 9.6 20:32:45 10° SSW 20:33:39 12° S 20:33:39 12° S visible
28 Oct 9.8 04:15:20 15° SSE 04:15:20 15° SSE 04:16:53 10° SSE visible
28 Oct 9.4 19:40:47 10° S 19:43:18 12° SSE 19:43:28 12° SSE visible
29 Oct 9.2 20:37:39 10° SSW 20:40:10 20° SSW 20:40:10 20° SSW visible
30 Oct 8.9 19:44:43 10° SSW 19:49:24 21° SSE 19:49:56 21° SSE visible
30 Oct 10.1 21:36:42 10° WSW 21:36:50 11° WSW 21:36:50 11° WSW visible
31 Oct 9.3 18:52:06 10° S 18:55:53 16° SSE 18:59:39 10° ESE visible
31 Oct 8.9 20:43:18 10° SW 20:46:35 27° SSW 20:46:35 27° SSW visible
